Weather History for George, South Africa

Change the Weather History Date:

Saturday, November 2, 2013

  Actual Average Record
Temperature  
Mean Temperature 60 °F -  
Max Temperature 66 °F 69 °F 82 °F (2005)
Min Temperature 53 °F 53 °F 45 °F (2012)
Degree Days  
Heating Degree Days 4    
Growing Degree Days 10 (Base 50)    
Moisture  
Dew Point 53 °F    
Average Humidity 79    
Maximum Humidity 94    
Minimum Humidity 55    
Precipitation  
Precipitation 0.00 in - - ()
Sea Level Pressure  
Sea Level Pressure 30.19 in    
Wind  
Wind Speed 8 mph ()    
Max Wind Speed 13 mph    
Max Gust Speed -    
Visibility 7.0 miles    
Events Rain    
Averages and records for this station are not official NWS values.
T = Trace of Precipitation, MM = Missing Value Source: Averaged Metar Reports

Daily Weather History Graph

Daily Weather History Graph

Search for Another Location

Airport:

Trip Planner

Search our weather history database for the weather conditions in past years. The results will help you decide how hot, cold, wet, or windy it might be!

Date:

Astronomy

Nov. 02, 2013 Rise Set
Actual Time 5:28 AM SAST 6:59 PM SAST
Civil Twilight 5:02 AM SAST 7:26 PM SAST
Nautical Twilight 4:30 AM SAST 7:58 PM SAST
Astronomical Twilight 3:56 AM SAST 8:31 PM SAST
Moon 4:35 AM SAST (11/2) 6:01 PM SAST (11/2)
Length of Visible Light 14h 24m
Length of Day
13h 30m
Waning Crescent, 2% of the Moon is Illuminated
Nov 2
Waning Crescent
Nov 3
New
Nov 10
First Quarter
Nov 17
Full
Nov 25
Last Quarter

Hourly Weather History & Observations

Time (SAST) Temp. Dew Point Humidity Pressure Visibility Wind Dir Wind Speed Gust Speed Precip Events Conditions
12:00 AM 59.0 °F 55.4 °F 88% 30.18 in 6.2 mi SSE 11.5 mph - N/A   Mostly Cloudy
1:00 AM 59.0 °F 55.4 °F 88% 30.18 in 6.2 mi SSE 11.5 mph - N/A Rain Light Rain
2:00 AM 58 °F 56 °F 90% 30.19 in 6 mi SE 8.1 mph - -  
2:00 AM 59.0 °F 55.4 °F 88% 30.18 in 6.2 mi SE 10.4 mph - N/A   Mostly Cloudy
3:00 AM 57.2 °F 55.4 °F 94% 30.18 in 6.2 mi ESE 6.9 mph - N/A   Mostly Cloudy
4:00 AM 57.2 °F 55.4 °F 94% 30.15 in 6.2 mi ESE 3.5 mph - N/A   Overcast
5:00 AM 56 °F 53 °F 87% 30.19 in 12 mi ESE 8.1 mph - - Rain Light Rain
5:00 AM 55.4 °F 53.6 °F 94% 30.18 in 6.2 mi ESE 8.1 mph - N/A   Mostly Cloudy
6:00 AM 57.2 °F 53.6 °F 88% 30.21 in 5.0 mi East 4.6 mph - N/A Rain Light Rain
7:00 AM 57.2 °F 53.6 °F 88% 30.21 in 5.0 mi SSE 5.8 mph - N/A Rain Light Rain
8:00 AM 57 °F 54 °F 86% 30.26 in 4 mi South 6.9 mph - - Rain Light Rain
8:00 AM 57.2 °F 53.6 °F 88% 30.24 in 3.7 mi South 6.9 mph - N/A Rain Light Rain
9:00 AM 59.0 °F 55.4 °F 88% 30.24 in 6.2 mi East 4.6 mph - N/A   Mostly Cloudy
10:00 AM 60.8 °F 55.4 °F 82% 30.24 in 6.2 mi SE 8.1 mph - N/A   Mostly Cloudy
11:00 AM 63 °F 54 °F 63% 30.25 in 12 mi SE 8.1 mph - -   Mostly Cloudy
11:00 AM 62.6 °F 53.6 °F 72% 30.24 in 6.2 mi SE 8.1 mph - N/A   Scattered Clouds
12:00 PM 62.6 °F 53.6 °F 72% 30.21 in 6.2 mi SSE 12.7 mph - N/A   Mostly Cloudy
1:00 PM 64.4 °F 53.6 °F 68% 30.21 in 6.2 mi SE 10.4 mph - N/A   Mostly Cloudy
2:00 PM 64 °F 53 °F 60% 30.20 in 12 mi ESE 10.4 mph - -   Mostly Cloudy
2:00 PM 64.4 °F 53.6 °F 68% 30.18 in 6.2 mi SE 9.2 mph - N/A   Scattered Clouds
3:00 PM 66.2 °F 53.6 °F 64% 30.15 in 6.2 mi ESE 10.4 mph - N/A   Partly Cloudy
4:00 PM 64.4 °F 51.8 °F 64% 30.15 in 6.2 mi SE 12.7 mph - N/A   Partly Cloudy
5:00 PM 64 °F 52 °F 55% 30.17 in 12 mi ESE 11.5 mph - -   Scattered Clouds
5:00 PM 62.6 °F 51.8 °F 68% 30.15 in 6.2 mi ESE 10.4 mph - N/A   Partly Cloudy
6:00 PM 62.6 °F 51.8 °F 68% 30.15 in 6.2 mi ESE 11.5 mph - N/A   Partly Cloudy
7:00 PM 59.0 °F 51.8 °F 77% 30.15 in 6.2 mi ESE 8.1 mph - N/A   Partly Cloudy
8:00 PM 57 °F 51 °F 74% 30.17 in 12 mi East 4.6 mph - -   Scattered Clouds
8:00 PM 57.2 °F 51.8 °F 82% 30.15 in 6.2 mi East 3.5 mph - N/A   Partly Cloudy
9:00 PM 55.4 °F 51.8 °F 88% 30.18 in - NNW 3.5 mph - N/A   Clear
10:00 PM 55.4 °F 51.8 °F 88% 30.15 in - NE 2.3 mph - N/A   Clear
11:00 PM 53.6 °F 50.0 °F 88% 30.15 in - NNW 4.6 mph - N/A   Clear